User: anonymous   Login
Location: Unspecified
(0.0000°N, 0.0000°E)
Time: 01:23:16
(UTC+00:00)
Language:

OBJECT F - Orbit

View from above orbital plane
View from above orbital plane
View from above satellite
View from above satellite

Ground track
Ground track

The orbit data is extracted from the following two-line orbital elements,

1 43197U 18015F   18174.58774396 +.00000581 +00000-0 +27033-4 0  9992
2 43197 097.3473 303.3881 0020538 132.0088 287.1715 15.23666191021515
Epoch (UTC): 23 June 2018 14:06:21
Eccentricity: 0.0020538
inclination: 97.3473°
perigee height: 480 km
apogee height: 509 km
right ascension of ascending node: 303.3881°
argument of perigee: 132.0088°
revolutions per day: 15.23666191
mean anomaly at epoch: 287.1715°
orbit number at epoch: 2151

The dashed part of the orbit path shows where the satellite is in the earth's shadow,  

DLR